Location: Putaja
(61.5000°N, 22.7000°E)
Time: 14:55:59
(UTC+00:00)

Daily predictions for brighter satellites

Satellite Brightness Start Highest point End
(mag) Time Altitude Azimuth Time Altitude Azimuth Time Altitude Azimuth
Cosmos 1758 Rocket 4.0 18:07:10 10° NNW 18:11:31 66° W 18:15:48 10° S
CZ-2C R/B 4.2 18:09:23 10° NNE 18:13:53 41° E 18:18:19 10° SSE
SPOT 3 Rocket 3.7 18:09:19 10° SSE 18:14:34 82° WSW 18:19:49 10° NNW
Cosmos 921 Rocket 2.9 18:10:59 10° NNW 18:15:12 77° ENE 18:19:25 10° SE
Cosmos 1953 Rocket 3.7 18:14:34 10° NNW 18:19:03 86° W 18:23:33 10° S
NOSS 2-1 (C) 3.6 18:15:25 10° W 18:19:06 77° NNW 18:23:50 10° ENE
Cosmos 1437 4.1 18:16:14 10° NNW 18:19:07 39° W 18:21:58 10° S
Cosmos 1300 4.3 18:16:44 10° SE 18:19:19 18° E 18:21:55 10° NE
IGS 5A 4.3 18:17:20 10° SE 18:21:09 36° ENE 18:25:00 10° N
Cosmos 407 Rocket 4.4 18:18:51 10° SSE 18:23:04 26° ESE 18:27:16 10° NE
Cosmos 2219 Rocket 3.6 18:17:47 10° W 18:23:04 39° NNW 18:28:21 10° NE
NOSS 2-1 (D) 3.6 18:19:37 10° W 18:23:21 76° NNW 18:28:07 10° ENE
Cosmos 1953 2.3 18:21:50 10° SSW 18:25:49 86° E 18:29:52 10° NNE
Cosmos 2228 3.2 18:22:51 10° S 18:27:02 51° E 18:31:17 10° NNE
Meteor 1-11 4.4 18:22:39 10° NNW 18:28:30 84° WSW 18:34:14 10° SSE
Cosmos 1606 Rocket 3.7 18:25:01 10° S 18:29:22 57° E 18:33:47 10° NNE
Cosmos 1818 4.3 18:25:02 10° S 18:29:42 30° ESE 18:34:24 10° ENE
ATLAS CENTAUR R/B 1.7 18:27:01 10° WNW 18:31:10 61° NNE 18:35:01 10° E
Cosmos 1908 3.5 18:28:09 10° S 18:31:52 46° E 18:35:38 10° NNE
ERS-1 Rocket 3.6 18:27:51 10° SE 18:32:32 41° ENE 18:37:14 10° NNW
ERBS 3.3 18:31:39 10° WSW 18:34:44 34° SSW 18:37:31 12° SE
COSMOS 2428 4.2 18:29:24 10° W 18:34:44 38° NNW 18:40:05 10° NE
Intercosmos 24 Rocket 4.5 18:30:34 10° SSW 18:34:54 81° WNW 18:38:30 10° NNE
Cosmos 1470 4.0 18:32:21 10° SW 18:36:09 47° WNW 18:39:59 10° N
Cosmos 2369 4.3 18:30:53 10° NW 18:36:23 48° NNE 18:41:52 10° ESE
Cosmos 220 Rocket 4.1 18:32:41 10° NNW 18:36:58 66° NE 18:41:05 11° SE
Landsat 7 4.1 18:33:01 10° SE 18:37:38 52° ENE 18:42:16 10° NNW
Cosmos 1943 3.4 18:32:50 10° SSW 18:38:17 50° ESE 18:43:47 10° NE
Cosmos 1461 4.1 18:34:23 10° WNW 18:38:31 39° SW 18:42:49 10° SSE
SPOT 1/Viking Rocket 3.9 18:34:06 10° SE 18:39:09 52° ENE 18:44:15 10° NNW
MetOp-B 4.2 18:34:49 10° SSE 18:40:10 76° ENE 18:45:34 10° NNW
CZ-2C R/B 4.4 18:37:30 10° SSW 18:41:58 36° W 18:46:23 10° NNW
CZ-4C R/B 2.8 18:37:49 10° WNW 18:44:04 79° NNE 18:51:35 10° E
Cosmos 2344 4.1 18:38:47 10° WNW 18:46:56 83° N 18:57:47 10° E
Cosmos 1697 Rocket 3.2 18:43:00 10° NW 18:48:35 53° NE 18:53:43 12° ESE
ADEOS Rocket 4.3 18:42:37 10° NNE 18:49:12 50° NW 18:55:07 10° SW
H-2A R/B 3.9 18:47:21 10° SSW 18:51:56 31° W 18:56:27 10° NNW
Cosmos 2151 4.1 18:48:58 10° N 18:52:42 29° ENE 18:55:38 14° ESE
CZ-2C R/B 2.7 18:48:28 10° NNE 18:53:35 55° E 18:58:40 10° S
Cosmos 2341 Rocket 4.1 18:47:34 10° NNW 18:54:00 87° ENE 19:00:25 10° SSE
Cosmos 1076 Rocket 3.8 18:50:26 10° N 18:54:38 53° ENE 18:58:15 14° SE
SPOT 5 3.1 18:57:34 15° SE 19:00:58 47° ENE 19:05:10 10° NNW
SL-16 R/B 2.9 18:55:57 10° WSW 19:01:34 60° NW 19:07:12 10° NE
SL-16 R/B 3.5 18:57:00 10° NW 19:02:13 35° NNE 19:07:25 10° E
Aureole 1 Rocket 4.1 18:57:41 10° S 19:04:31 52° ESE 19:09:50 10° NE
Cosmos 2058 3.0 19:00:43 10° N 19:04:49 60° ENE 19:08:05 15° SSE
Cosmos 1763 Rocket 3.5 19:00:06 10° NNW 19:05:23 73° NE 19:09:33 16° SE
NOSS 3-3 (A) 4.1 19:00:13 10° SW 19:06:14 58° SE 19:13:09 10° ENE
NOSS 3-3 (C) 4.1 19:00:19 10° SW 19:06:21 58° SE 19:13:15 10° ENE
Cosmos 1726 2.9 19:02:47 10° SSW 19:06:29 55° WNW 19:10:11 10° N
Cosmos 2251 Rocket 3.7 19:01:36 10° SW 19:07:00 81° NW 19:12:26 10° NE
Cosmos 2360 Rocket 3.7 19:03:22 10° WNW 19:08:24 32° N 19:13:26 10° ENE
Cosmos 1814 Rocket 4.5 19:03:11 10° NNW 19:08:27 52° NE 19:12:37 16° ESE
Iridium 2 4.2 19:07:08 15° SSE 19:09:56 39° E 19:13:32 10° NNE
DMSP B5D2-2 4.0 19:05:35 10° NNE 19:10:50 78° ESE 19:16:05 10° SSW
Cosmos 2218 Rocket 4.0 19:05:25 10° NNW 19:11:39 78° ENE 19:17:37 11° SSE
NOSS 2-1 (E) 3.8 19:07:55 10° W 19:11:49 70° N 19:17:00 10° E
Cosmos 2322 Rocket 3.5 19:07:00 10° NW 19:12:12 35° NNE 19:17:22 10° E
Cosmos 1174 4.2 19:11:06 10° WNW 19:14:43 56° SW 19:17:51 18° SSE
Cosmos 1408 3.2 19:12:15 10° N 19:15:43 39° ENE 19:17:45 21° SE
Cosmos 2333 Rocket 3.8 19:10:47 10° WNW 19:15:54 33° N 19:21:02 10° ENE
Cosmos 1980 Rocket 2.7 19:11:20 10° NW 19:16:50 51° NNE 19:21:25 15° ESE
RESURS DK-1 2.4 19:13:33 10° NW 19:17:45 74° NE 19:20:33 20° SE
Cosmos 192 4.4 19:13:10 10° NW 19:18:09 78° WSW 19:22:07 16° SSE
MOS 1 Rocket 3.6 19:13:20 10° NNE 19:18:38 84° ESE 19:24:05 10° SSW
Terra 2.2 19:16:09 18° SE 19:19:33 53° ENE 19:24:13 10° NNW
USA 234 4.1 19:14:35 10° E 19:19:53 26° SE 19:25:11 10° S
Cosmos 540 Rocket 3.8 19:15:45 10° NNW 19:20:54 59° NE 19:24:35 19° ESE
Cosmos-2242 4.5 19:20:13 18° ESE 19:21:40 21° E 19:24:53 10° NE
ATLAS 2AS CENTAUR R/B 4.3 19:16:05 10° WNW 19:22:34 31° WSW 19:28:38 10° S
Cosmos 1603 3.7 19:18:23 10° SW 19:24:01 89° NW 19:29:41 10° NE
Cosmos 1892 2.7 19:20:22 10° NNW 19:24:17 72° ENE 19:26:53 20° SSE
Cosmos 2058 Rocket 3.1 19:20:12 10° SSW 19:24:44 89° E 19:29:17 10° NNE
Cosmos 1656 3.7 19:19:13 10° NW 19:24:59 88° SW 19:29:11 19° SE
SeaSat 1 3.3 19:21:22 10° NE 19:26:12 54° NW 19:31:00 10° WSW
Cosmos 2237 Rocket 3.7 19:22:03 10° W 19:27:18 37° NNW 19:32:34 10° NE
Resurs 01 Rocket 3.0 19:23:28 10° SSW 19:27:35 37° W 19:31:45 10° NNW
Iridium 4 Rocket 3.0 19:23:25 10° N 19:27:48 71° E 19:30:54 18° SSE
Okean 3 Rocket 4.0 19:23:57 10° N 19:28:14 48° ENE 19:30:50 22° SE
Cosmos 1455 3.6 19:28:47 20° ESE 19:29:36 21° E 19:32:33 10° NE
Cosmos 2360 4.4 19:24:40 10° NW 19:30:22 65° NE 19:34:31 19° ESE
SL-8 Rocket 4.2 19:25:58 10° NNW 19:32:17 76° W 19:38:35 10° S
Cosmos 2181 Rocket 4.0 19:28:15 10° S 19:34:24 64° E 19:40:31 10° NNE
Cosmos 1190 Rocket 4.0 19:29:38 10° SSW 19:34:51 61° ESE 19:40:05 10° NE
CARTOSAT-1 3.5 19:33:00 20° SSE 19:36:00 83° ENE 19:40:21 10° NNW
Nadezhda 1 Rocket 4.4 19:29:41 10° SSW 19:36:04 70° WNW 19:42:25 10° NNE
Cosmos 1140 Rocket 3.5 19:31:07 10° SSW 19:36:11 56° ESE 19:41:15 10° NE
Spot 2 Rocket 4.1 19:31:41 10° S 19:36:43 56° WSW 19:41:47 10° NNW
Cosmos 1726 Rocket 4.3 19:33:51 10° SSW 19:38:13 56° WNW 19:42:38 10° N
ALOS 2 4.5 19:36:21 12° E 19:39:04 20° NE 19:42:14 10° N
Cosmos 2278 3.9 19:34:06 10° NW 19:39:46 68° NE 19:43:39 21° ESE
Cosmos 1340 Rocket 3.0 19:35:48 10° SSW 19:39:51 77° WNW 19:43:55 10° NNE
Cosmos 1825 2.5 19:36:16 10° N 19:40:00 49° ENE 19:41:43 27° SE
Cosmos 1766 Rocket 3.9 19:36:00 10° N 19:40:25 52° ENE 19:42:50 25° SE
Cosmos 841 Rocket 3.5 19:35:25 10° NW 19:40:45 78° NE 19:44:08 23° SE
ATLAS 5 CENTAUR R/B 2.4 19:38:05 10° S 19:41:56 31° SE 19:46:16 10° ENE
Cosmos 2366 rocket 4.1 19:37:44 10° NNW 19:43:55 77° W 19:49:25 13° S
Meteor 2-12 Rocket 4.5 19:38:35 10° NNW 19:44:46 87° WSW 19:49:39 17° S
Cosmos 2084 3.6 19:41:00 10° WNW 19:45:30 81° NNE 19:48:40 19° E
Cosmos 1570 Rocket 4.0 19:40:35 10° NW 19:46:00 88° WSW 19:49:25 23° SSE
Elektron 3 4.0 19:41:28 10° W 19:46:10 80° S 19:48:06 21° E
Cosmos 468 Rocket 4.4 19:45:01 10° NW 19:50:08 59° WSW 19:53:40 20° S
Cosmos 2082 Rocket 4.2 19:51:41 11° E 19:51:41 11° E 19:52:51 10° E
COSMOS 2455 4.2 19:46:36 10° WNW 19:51:45 30° WSW 19:56:39 11° S
Cosmos 614 Rocket 4.0 19:47:59 10° SW 19:53:14 87° WNW 19:58:29 10° NE
Mayak 0.1 19:50:15 10° NE 19:53:29 21° E 19:54:01 21° E
Cosmos 1300 2.7 19:50:48 11° SSW 19:54:30 81° WNW 19:58:22 10° NNE
IGS 5A 4.3 19:53:17 15° S 19:56:35 47° W 20:00:39 10° NNW
Cosmos 1812 Rocket 3.5 19:56:43 21° S 19:59:35 69° E 20:03:55 10° NNE
SWARM A 4.3 20:00:06 39° SSE 20:01:06 60° E 20:04:25 10° N
ASTEX 1 3.8 19:59:42 26° SE 20:02:09 49° ENE 20:06:56 10° N
Nadezhda 3 Rocket 4.5 19:59:07 24° SE 20:02:33 43° E 20:08:25 10° NNE
Cosmos 676 Rocket 4.0 19:57:56 10° SSW 20:03:09 64° ESE 20:08:21 10° NE
Cosmos 407 Rocket 3.5 19:59:25 10° SW 20:04:34 85° WNW 20:09:45 10° NE
COSMOS 2406 4.2 20:03:30 25° SE 20:04:42 27° ESE 20:09:24 10° NE
Cosmos 1833 Rocket 4.1 20:06:11 19° ESE 20:06:27 19° E 20:10:18 10° ENE
Cosmos 2219 Rocket 3.8 20:03:19 10° WNW 20:08:22 32° N 20:13:23 10° ENE
Cosmos 1356 Rocket 4.0 20:07:12 32° SE 20:08:28 41° E 20:12:29 10° NNE
NOSS 2-1 (C) 3.8 20:05:49 10° WNW 20:09:53 76° NNE 20:14:05 16° E
ATLAS CENTAUR R/B 1.3 20:06:09 10° WNW 20:10:10 62° SW 20:11:25 38° SSE
ERBS 4.3 20:08:09 10° WSW 20:10:25 17° SSW 20:10:29 17° SSW
ERS-1 Rocket 3.5 20:07:39 18° S 20:11:17 55° WSW 20:16:15 10° NNW
Cosmos 1818 3.5 20:07:18 10° SW 20:12:45 79° SSE 20:18:15 10° ENE
NOSS 2-1 (D) 3.8 20:10:02 10° WNW 20:14:07 77° NNE 20:18:12 17° E
Meteor 2-1 Rocket 4.3 20:11:13 17° S 20:15:51 73° ESE 20:21:48 10° NNE
COSMOS 2428 4.3 20:15:12 10° WNW 20:20:22 33° N 20:25:32 10° ENE
Thor Agena Rocket 4.4 20:16:06 10° NNE 20:20:34 30° E 20:21:45 27° ESE
Cosmos 2369 3.8 20:15:16 10° NW 20:20:54 69° SW 20:23:48 29° SSE
Cosmos 1943 3.8 20:16:42 10° WSW 20:22:20 61° NW 20:28:02 10° NE
Cosmos 2208 Rocket 4.2 20:17:53 10° NW 20:23:02 63° WSW 20:25:38 29° S
Cosmos 2239 Rocket 4.5 20:16:49 10° NNW 20:23:05 87° ENE 20:26:45 27° SSE
Cosmos 1743 Rocket 4.1 20:18:44 10° N 20:23:06 48° ENE 20:24:43 33° ESE
Cosmos 1408 Rocket 3.6 20:19:15 10° NNW 20:23:46 74° ENE 20:25:29 37° SSE
Cosmos 1821 Rocket 4.1 20:19:34 10° NNW 20:25:58 84° WSW 20:29:53 25° S
Cosmos 1954 Rocket 3.9 20:22:27 10° SSW 20:27:42 83° ESE 20:32:57 10° NE
Cosmos 1741 Rocket 4.3 20:27:12 30° SSE 20:29:24 48° ESE 20:34:32 10° NE
Cosmos 2151 3.4 20:26:09 10° NNW 20:30:17 57° W 20:32:13 29° SSW
Cosmos 1697 Rocket 3.0 20:27:10 10° NW 20:32:45 60° WSW 20:35:27 30° S
CZ-4C R/B 2.8 20:26:15 10° WNW 20:32:47 68° SW 20:37:07 28° SE
CZ-2C R/B 3.8 20:29:00 10° NNE 20:33:51 41° WNW 20:38:40 10° SW
Meteor 2-10 Rocket 3.6 20:31:30 31° S 20:33:58 62° E 20:39:23 10° NNE
Cosmos 1934 Rocket 4.0 20:28:13 10° NNW 20:34:35 80° ENE 20:37:51 30° SSE
SPOT 5 3.7 20:36:47 20° SSW 20:39:15 37° W 20:43:18 10° NNW
Cosmos 1633 3.2 20:36:42 10° N 20:40:06 39° ENE 20:40:36 37° E
Meteor 2-3 Rocket 3.7 20:35:52 10° NNW 20:41:42 89° WSW 20:44:26 33° SSE
Cosmos 1605 Rocket 4.0 20:38:51 10° NNW 20:44:59 68° ENE 20:47:54 33° SE
SL-16 R/B 3.9 20:41:31 10° WNW 20:46:41 34° NNW 20:51:51 10° NE
Cosmos 1340 3.7 20:43:38 10° N 20:47:09 33° ENE 20:47:58 30° E
SL-16 R/B 2.5 20:41:37 10° NW 20:47:17 63° NE 20:50:30 26° ESE
STPSAT 2 (USA 217) 4.5 20:46:03 30° SSW 20:48:11 70° SE 20:52:41 10° NE
Aureole 1 Rocket 4.5 20:42:27 10° SW 20:49:08 56° NW 20:54:14 10° NNE
Cosmos 1408 4.0 20:47:26 10° NNW 20:50:42 31° W 20:52:05 23° SW
Helios 1A 3.9 20:50:14 31° E 20:51:32 39° ENE 20:55:29 10° N
Cosmos 2360 Rocket 3.0 20:48:10 10° NW 20:53:37 47° NNE 20:57:49 17° E
RESURS DK-1 3.7 20:51:55 10° WNW 20:55:30 28° WSW 20:56:27 26° SW
Intercosmos 25 4.1 20:56:58 30° ENE 20:56:58 30° ENE 20:59:26 10° NNE
NOSS 3-3 (A) 4.2 20:50:38 10° WSW 20:57:05 82° NNW 21:04:32 10° ENE
NOSS 3-3 (C) 4.2 20:50:44 10° WSW 20:57:10 82° NNW 21:04:38 10° ENE
Cosmos 2322 Rocket 2.5 20:51:34 10° NW 20:57:13 63° NE 21:00:21 27° ESE
Cosmos 2221 3.3 20:57:01 34° ESE 20:57:27 35° E 21:01:27 10° NNE
Terra 2.9 20:55:02 22° SSW 20:57:30 37° W 21:01:58 10° NNW
Cosmos-2242 3.0 20:57:02 37° SSW 20:58:43 82° WNW 21:03:08 10° NNE
Cosmos 1980 Rocket 2.3 20:55:31 10° NW 21:01:04 63° WSW 21:03:11 37° S
Cosmos 1842 Rocket 4.0 21:00:58 41° ESE 21:01:29 43° E 21:05:37 10° NNE
Cosmos 2333 Rocket 3.5 20:56:13 10° NW 21:01:31 38° NNE 21:06:47 10° E
Cosmos 2344 4.3 20:52:59 10° WNW 21:01:36 66° SW 21:08:39 26° SSE
Cosmos 540 Rocket 4.3 20:57:35 10° NW 21:02:25 41° WSW 21:04:25 29° SSW
NOSS 2-1 (E) 3.8 20:58:15 10° WNW 21:02:35 88° SSW 21:05:34 28° ESE
USA 234 3.4 20:57:45 10° E 21:04:03 48° SSE 21:10:22 10° SW
Cosmos 1455 2.4 21:03:41 40° SW 21:04:53 66° WNW 21:08:44 10° NNE
Cosmos 2237 Rocket 3.9 21:07:38 10° WNW 21:12:44 33° N 21:17:50 10° ENE
Cosmos 1869 4.2 21:14:23 34° E 21:14:23 34° E 21:17:59 10° NNE
ALOS 2 2.6 21:13:44 50° SE 21:14:47 72° ENE 21:19:12 10° NNW
Cosmos 1238 Rocket 3.6 21:12:11 10° N 21:14:36 29° ENE 21:14:36 29° ENE
Cosmos 1825 3.8 21:12:05 10° NNW 21:15:20 27° W 21:16:32 22° WSW
Cosmos 1850 Rocket 3.9 21:13:06 28° SSW 21:15:54 86° ESE 21:21:08 10° NE
Sich 1 3.5 21:11:48 10° N 21:16:10 53° ENE 21:17:13 42° ESE
JB-3 4.1 21:15:17 10° NNE 21:19:08 74° ESE 21:19:27 68° SSE
Cosmos 2278 4.4 21:18:28 10° NW 21:23:47 42° WSW 21:25:34 33° SSW
Cosmos 2084 3.7 21:20:37 10° WNW 21:24:58 52° SW 21:25:12 52° SSW
Cosmos 773 Rocket 4.3 21:19:48 10° NNW 21:24:58 61° NE 21:27:09 33° ESE
ATLAS 5 CENTAUR R/B 1.6 21:21:30 10° WSW 21:26:02 82° SSE 21:31:22 10° ENE
Spot 4 4.1 21:26:02 42° SSW 21:27:26 59° WSW 21:32:13 10° NNW
SL-24 R/B - RUBIN 2 4.4 21:23:22 10° WSW 21:29:29 87° NNW 21:36:11 10° ENE
Mayak -1.2 21:25:23 10° NNE 21:29:34 77° WNW 21:30:35 50° SW
EO 1 Del DPAF 3.0 21:25:52 10° NNE 21:29:40 86° ESE 21:29:57 75° S
Cosmos 1500 Rocket 3.8 21:26:28 10° NNW 21:30:45 60° W 21:31:38 49° SSW
Cosmos 1805 Rocket 3.5 21:27:11 10° NNW 21:31:40 83° ENE 21:32:32 58° SSE
Cosmos 1862 3.3 21:28:28 10° NNW 21:32:33 69° ENE 21:33:03 61° ESE
Cosmos 2082 Rocket 2.6 21:33:29 39° SE 21:34:14 41° ESE 21:39:31 10° NE
Cosmos 1346 Rocket 2.9 21:32:31 10° NNW 21:36:33 66° ENE 21:37:00 60° ESE
Meteor 1-27 4.2 21:37:03 42° S 21:39:07 76° ESE 21:44:59 10° NNE
ASTEX 1 4.4 21:39:12 27° SW 21:41:19 40° W 21:46:00 10° NNW
Cosmos 968 Rocket 4.3 21:47:07 33° ESE 21:47:32 34° ESE 21:52:15 10° NE
Nadezhda 3 Rocket 4.5 21:43:48 22° SW 21:47:55 59° WNW 21:54:08 10° NNE
ATLAS CENTAUR R/B 3.3 21:45:47 10° W 21:47:36 16° WSW 21:47:36 16° WSW
COSMOS 2406 3.1 21:45:30 31° SW 21:48:23 85° SE 21:54:10 10° NE
Cosmos 1833 Rocket 2.7 21:47:50 45° S 21:49:27 64° ESE 21:55:04 10° NE
SL-16 R/B 4.0 21:44:19 10° ESE 21:49:45 32° NE 21:55:09 10° NNW
Cosmos 1633 Rocket 3.2 21:46:12 10° N 21:50:39 63° ENE 21:51:27 52° ESE
Cosmos 2219 Rocket 3.0 21:48:01 10° NW 21:53:30 48° NNE 21:58:30 12° ESE
Cosmos 2237 4.3 21:49:40 10° NW 21:55:26 79° NE 21:58:00 34° SE
Cosmos 1818 4.0 21:51:11 10° W 21:56:37 63° N 22:02:03 10° ENE
Thor Agena Rocket 3.6 21:55:16 10° NNE 22:00:20 70° WNW 22:02:20 37° SW
NOSS 2-1 (C) 4.0 21:56:03 10° WNW 22:00:27 57° SW 22:01:25 50° S
Cosmos 1459 Rocket 4.0 21:54:21 10° NNW 22:00:48 85° ENE 22:03:14 41° SSE
Cosmos 1400 Rocket 2.8 22:00:52 62° ESE 22:00:52 62° ESE 22:04:48 10° NNE
NOSS 2-1 (D) 4.1 22:00:16 10° WNW 22:04:42 55° SW 22:05:32 50° S
COSMOS 2428 3.4 22:00:10 10° NW 22:05:46 52° NNE 22:10:48 13° ESE
Cosmos 1151 Rocket 4.3 22:05:38 27° E 22:06:02 27° E 22:09:43 10° NNE
Cosmos 2322 4.0 22:00:58 10° NW 22:06:41 65° NE 22:10:11 24° ESE
Cosmos 1727 Rocket 4.0 22:06:40 42° S 22:08:56 76° E 22:15:18 10° NNE
Cosmos 1802 Rocket 3.9 22:04:20 10° NNW 22:10:40 84° ENE 22:12:57 42° SSE
Cosmos 2333 4.5 22:05:29 10° NW 22:11:06 65° NE 22:14:29 24° ESE
Cosmos 1725 Rocket 4.2 22:06:35 10° NNW 22:12:56 69° ENE 22:15:34 37° SE
Cosmos 2016 Rocket 4.0 22:08:22 10° NNW 22:14:48 79° ENE 22:17:17 40° SSE
Cosmos 1633 3.9 22:11:42 10° NNW 22:14:44 30° W 22:14:44 30° W
Cosmos 1697 Rocket 4.5 22:12:06 10° WNW 22:15:42 17° W 22:17:11 16° WSW
Cosmos 2100 Rocket 4.0 22:12:10 10° NNW 22:18:22 75° W 22:20:33 43° S
CZ-4C R/B 3.8 22:14:50 10° WNW 22:20:45 31° WSW 22:22:18 28° SW
Cosmos 1340 3.4 22:19:16 10° NNW 22:22:43 41° W 22:22:43 41° W
Cosmos 1441 Rocket 4.4 22:21:37 10° N 22:25:09 34° ENE 22:25:58 31° E
Helios 1A 3.6 22:26:51 42° WSW 22:27:06 43° W 22:31:10 10° NNW
SL-08 R/B 4.5 22:21:38 10° NNW 22:27:51 82° ENE 22:30:15 41° SSE
Meteor 2-2 Rocket 4.2 22:25:57 43° SSW 22:27:55 81° WNW 22:33:37 10° NNE
Landsat 4 3.6 22:26:08 10° NNE 22:29:56 76° ESE 22:29:56 76° ESE
Cosmos 2173 Rocket 4.0 22:24:43 10° NNW 22:30:47 68° W 22:32:48 43° SSW
SL-16 R/B 2.5 22:25:56 10° NW 22:31:21 47° WSW 22:32:21 42° SSW
Cosmos 923 Rocket 4.2 22:26:18 10° NNW 22:31:33 67° NE 22:33:55 32° ESE
SL-16 R/B 3.8 22:27:00 10° NW 22:32:12 35° NNE 22:37:23 10° E
Cosmos 1933 4.4 22:32:59 33° E 22:33:10 33° E 22:36:48 10° NNE
Cosmos 1503 Rocket 4.2 22:33:35 48° SSE 22:34:26 53° ESE 22:39:31 10° NE
Cosmos 2221 3.2 22:33:50 38° WSW 22:34:57 48° WNW 22:39:13 10° N
Cosmos 1666 Rocket 3.8 22:32:19 10° NNW 22:36:34 53° W 22:36:56 51° WSW
Cosmos 1933 Rocket 3.6 22:32:21 10° NNW 22:36:49 72° ENE 22:37:35 57° SE
Cosmos 2360 Rocket 2.1 22:32:21 10° NW 22:37:59 72° SW 22:39:34 47° SSE
Cosmos 2322 Rocket 2.5 22:35:50 10° NW 22:41:13 47° WSW 22:42:08 43° SW
Cosmos 1602 4.3 22:39:07 10° N 22:42:57 49° ENE 22:43:33 45° E
Resurs 1-4 Rocket 4.2 22:40:23 10° NE 22:43:45 17° E 22:46:24 12° ESE
Cosmos 1980 Rocket 3.9 22:40:24 10° WNW 22:44:06 18° W 22:44:56 18° WSW
DELTA 2 DEB (DPAF) 4.5 22:43:29 42° ESE 22:44:43 60° ENE 22:49:08 10° NNW
Nimbus 7 Rocket 4.5 22:40:16 10° NNE 22:46:09 73° WNW 22:48:38 36° SW
Cosmos 2333 Rocket 2.3 22:40:51 10° NW 22:46:33 77° NE 22:49:56 25° SE
USA 234 3.2 22:41:17 10° E 22:47:47 62° S 22:54:16 10° WSW
CZ-4 R/B 4.2 22:43:37 10° NNE 22:48:25 54° ESE 22:49:27 46° SE
NOSS 3-3 (A) 4.4 22:41:42 10° WNW 22:48:28 80° N 22:56:15 10° E
NOSS 3-3 (C) 4.4 22:41:47 10° WNW 22:48:33 80° N 22:56:21 10° E
CZ-4C R/B 3.9 22:48:15 39° E 22:48:44 42° ENE 22:52:03 10° N
Cosmos 1680 Rocket 3.7 22:44:11 10° NNW 22:49:26 70° NE 22:51:57 31° SE
Cosmos 1869 4.1 22:49:55 38° W 22:50:34 41° WNW 22:54:25 10° N
Cosmos 1315 Rocket 2.7 22:50:49 74° SSE 22:51:03 78° ESE 22:55:12 10° NNE
ALOS 2 4.0 22:51:07 24° W 22:51:35 25° W 22:55:13 10° NW
Cosmos 1538 Rocket 4.1 22:47:02 10° NW 22:52:15 61° WSW 22:53:18 51° SSW
Sich 1 4.1 22:49:45 10° NNW 22:53:43 32° W 22:54:11 31° WSW
Cosmos 1238 Rocket 4.1 22:51:50 10° NNW 22:53:30 23° WNW 22:53:30 23° WNW
IRAS Rocket 4.3 22:54:11 46° S 22:55:45 66° WSW 23:01:24 10° NNW
Cosmos 2237 Rocket 3.0 22:52:22 10° NW 22:57:55 52° NNE 23:03:28 10° ESE
Cosmos 1328 Rocket 3.5 22:59:15 60° SE 22:59:46 67° E 23:04:04 10° NNE
Cosmos 1606 2.9 22:59:41 56° ESE 22:59:46 57° E 23:03:37 10° NNE
Meteor 1-25 Rocket 4.2 22:54:57 10° NNW 23:00:42 78° WSW 23:02:32 45° S
Helios 1B rocket 2.4 22:58:06 10° NNE 23:02:13 67° ESE 23:02:34 63° SE
CZ-2D R/B 4.0 22:58:50 10° NE 23:03:05 22° E 23:05:54 15° SE
NOSS 0 Rocket 4.1 22:57:52 10° NW 23:04:05 70° NE 23:10:15 10° ESE
Mayak 1.0 23:01:37 10° N 23:04:35 19° NW 23:07:09 12° W
Cosmos 1000 Rocket 4.5 23:03:58 41° SSW 23:06:24 84° WNW 23:12:46 10° NNE
Cosmos 2228 Rocket 4.1 23:05:37 33° ESE 23:06:42 38° E 23:10:58 10° NNE
Cosmos 1486 Rocket 4.1 23:06:07 40° SW 23:08:01 74° NW 23:13:20 10° NNE
SJ 16-02 3.7 23:08:33 11° ESE 23:09:56 12° E 23:11:44 10° ENE
SME Rocket 3.1 23:05:01 10° NNE 23:10:09 82° WNW 23:10:56 59° SW
ATLAS 5 CENTAUR R/B 2.1 23:06:06 10° W 23:10:54 72° N 23:16:33 10° E
Cosmos 1346 Rocket 4.4 23:09:23 10° NW 23:12:30 23° W 23:12:30 23° W
Cosmos 1782 3.8 23:14:23 34° ESE 23:14:55 36° E 23:18:34 10° NNE
Cosmos 2061 Rocket 4.4 23:10:04 10° NNW 23:16:05 51° W 23:18:09 37° SW
Cosmos 2082 Rocket 2.4 23:15:17 30° WSW 23:18:08 70° NW 23:23:50 10° NE
Cosmos 1470 Rocket 4.0 23:16:41 10° NNW 23:20:53 44° W 23:21:14 43° WSW
Meteor 1-14 Rocket 4.3 23:16:52 10° NNW 23:22:54 79° WSW 23:25:12 40° S
UNK 4.0 23:24:17 36° SE 23:26:08 69° ENE 23:30:48 10° NNW
Cosmos 1733 Rocket 4.2 23:22:03 10° N 23:26:15 40° ENE 23:28:46 21° ESE
Cosmos 1633 Rocket 4.3 23:24:25 10° NNW 23:28:09 27° W 23:28:32 26° W
ERS-2 3.8 23:26:23 17° ESE 23:28:35 30° ENE 23:31:50 10° N
Cosmos 968 Rocket 3.6 23:27:06 38° SW 23:29:05 70° NW 23:34:23 10° NNE
Meteor 1-26 Rocket 4.5 23:27:04 37° SSE 23:29:18 63° E 23:35:00 10° NNE
H-2A R/B 4.1 23:26:47 10° ESE 23:30:12 25° NE 23:33:35 10° N
SL-27 R/B 2.4 23:30:34 73° NNW 23:30:34 73° NNW 23:33:44 10° NNE
SL-16 R/B 2.5 23:29:17 28° SSE 23:32:49 86° ENE 23:39:06 10° NNW
Cosmos 2112 Rocket 3.9 23:27:53 10° NW 23:33:07 79° WSW 23:35:07 39° SSE
COSMOS 2406 4.3 23:27:48 10° W 23:33:15 43° NNW 23:38:45 10° NE
Cosmos 1666 4.2 23:30:14 10° N 23:33:39 32° ENE 23:35:38 19° ESE
Cosmos 1833 Rocket 3.4 23:29:29 17° WSW 23:33:40 51° NNW 23:39:11 10° NE
Cosmos 1400 Rocket 4.4 23:36:27 22° W 23:37:41 26° NW 23:41:04 10° N
Cosmos 2219 Rocket 2.1 23:32:11 10° NW 23:37:47 69° SW 23:40:10 35° SSE
Cosmos 1818 3.9 23:35:16 10° WNW 23:40:44 67° NNE 23:46:11 10° E
Cosmos 1777 Rocket 4.2 23:39:29 42° S 23:41:03 60° ESE 23:46:14 10° NE
PSLV R/B 3.6 23:37:39 10° NNE 23:42:04 80° WNW 23:43:09 52° SSW
Cosmos 44 2.9 23:41:50 58° SW 23:42:38 77° SE 23:47:01 10° ENE
Cosmos 1151 Rocket 3.2 23:42:28 48° WSW 23:43:21 60° WNW 23:47:39 10° N
Cosmos 158 Rocket 3.9 23:38:07 10° NW 23:43:27 74° WSW 23:45:31 37° SSE
SL-19 R/B 4.4 23:40:24 10° NNE 23:46:20 73° ESE 23:48:37 38° S
MOS 1-B Rocket 4.4 23:43:39 10° NNE 23:49:21 56° WNW 23:52:40 28° SW
COSMOS 2428 2.7 23:44:38 10° NW 23:50:18 63° WSW 23:52:47 33° SSE
Cosmos 1072 Rocket 4.4 23:44:07 10° NNW 23:50:20 88° ENE 23:53:47 29° SSE
Cosmos 2322 4.0 23:45:22 10° NW 23:50:48 46° WSW 23:52:05 39° SSW
Cosmos 1607 3.9 23:48:20 31° SW 23:51:28 84° SSE 23:57:48 10° ENE
Cosmos 2233 Rocket 4.3 23:47:16 10° NNW 23:53:21 52° W 23:55:42 35° SW
Meteor 1-29 3.1 23:50:29 10° NNE 23:53:51 59° WNW 23:54:00 58° W
CZ-4B R/B 4.4 23:51:02 10° NNE 23:55:32 37° E 23:57:44 24° SSE
